DW9004 Weather Reports


Display with metric or nautical units.
time (UTC)temp
F
wind
direction
speed
MPH
gust
MPH
rain 1hr
in
rain 24hr
in
rain mn
in
humidity
%
barometer
mb
20260509150016 61 241 0.0 1.0 0.00 0.00 0.00 64 1017.2
20260509144502 56 237 0.0 3.0 0.00 0.00 0.00 68 1017.1
20260509143107 53 207 0.0 2.0 0.00 0.00 0.00 75 1017.1
20260509141553 51 212 0.0 2.0 0.00 0.00 0.00 77 1016.9
20260509140051 49 218 0.0 1.0 0.00 0.00 0.00 78 1016.9
20260509134552 47 225 0.0 0.0 0.00 0.00 0.00 78 1016.8
20260509133050 0 0.0 0.0 0.00 0.00 0.00 1016.6
20260509131537 0 0.0 0.0 0.00 0.00 0.00 1016.5
20260509130032 0 0.0 0.0 0.00 0.00 0.00 1016.4
20260509124513 47 328 3.0 4.0 0.00 0.00 0.00 74 1016.6
20260509123009 49 308 1.0 3.0 0.00 0.00 0.00 72 1016.6
20260509121509 49 102 1.0 5.0 0.00 0.00 0.00 74 1016.4
20260509120101 48 40 2.0 7.0 0.00 0.00 0.00 75 1016.5
20260509114600 48 332 5.0 7.0 0.00 0.00 0.00 74 1016.3
20260509113052 50 297 2.0 4.0 0.00 0.00 0.00 71 1016.4
20260509111547 50 175 1.0 5.0 0.00 0.00 0.00 70 1016.4
20260509110042 52 17 5.0 7.0 0.00 0.00 0.00 66 1016.2
20260509104538 52 252 1.0 6.0 0.00 0.00 0.00 67 1016.1
20260509103019 52 300 6.0 9.0 0.00 0.00 0.00 65 1015.9
20260509100014 53 306 3.0 8.0 0.00 0.00 0.00 65 1015.7
20260509094507 56 309 5.0 9.0 0.00 0.00 0.00 57 1015.7
20260509093002 59 288 3.0 14.0 0.00 0.00 0.00 51 1015.5
20260509091558 59 255 8.0 13.0 0.00 0.00 0.00 51 1015.5
20260509090054 -90 351 0.0 3.0 0.00 0.00 0.00 1 1015.3
20260509084553 -90 325 0.0 1.0 0.00 0.00 0.00 1 1015.2
20260509083048 -90 3 0.0 1.0 0.00 0.00 0.00 1 1015.2
20260509081541 66 104 0.0 2.0 0.00 0.00 0.00 23 1015.1
20260509080040 56 239 0.0 0.0 0.00 0.00 0.00 47 1014.7
20260509074528 56 244 1.0 6.0 0.00 0.00 0.00 51 1014.8
20260509073041 57 228 0.0 4.0 0.00 0.00 0.00 51 1014.9
20260509071521 56 2 0.0 2.0 0.00 0.00 0.00 51 1014.3
20260509070021 57 242 0.0 2.0 0.00 0.00 0.00 48 1014.2
20260509064515 58 198 0.0 3.0 0.00 0.00 0.00 47 1013.8
20260509063014 59 217 0.0 5.0 0.00 0.00 0.00 46 1013.4
20260509061512 60 84 0.0 1.0 0.00 0.00 0.00 42 1013.6
20260509060100 61 183 1.0 9.0 0.00 0.00 0.00 42 1013.5
20260509054605 60 267 2.0 4.0 0.00 0.00 0.00 42 1013.7
20260509053057 60 296 0.0 3.0 0.00 0.00 0.00 42 1013.4
20260509051602 58 86 0.0 1.0 0.00 0.00 0.00 44 1013.0
20260509050053 58 227 0.0 2.0 0.00 0.00 0.00 43 1013.0
20260509044549 60 138 0.0 0.0 0.00 0.00 0.00 40 1013.0
20260509043052 62 240 0.0 0.0 0.00 0.00 0.00 37 1012.7
20260509041539 65 265 0.0 2.0 0.00 0.00 0.00 34 1012.4
20260509034522 66 317 1.0 4.0 0.00 0.00 0.00 32 1012.0
20260509033022 66 333 1.0 4.0 0.00 0.00 0.00 31 1011.8
20260509031518 68 315 2.0 5.0 0.00 0.00 0.00 28 1011.5
20260509030011 69 312 2.0 5.0 0.00 0.00 0.00 26 1011.2
20260509024510 70 308 1.0 4.0 0.00 0.00 0.00 26 1010.9
20260509023005 71 306 1.0 3.0 0.00 0.00 0.00 24 1010.8
20260509021559 73 308 0.0 3.0 0.00 0.00 0.00 24 1010.5
20260509020037 74 322 0.0 2.0 0.00 0.00 0.00 26 1010.3
20260509014535 75 340 0.0 3.0 0.00 0.00 0.00 24 1010.2
20260509013041 76 75 0.0 3.0 0.00 0.00 0.00 23 1010.1
20260509011517 78 306 0.0 5.0 0.00 0.00 0.00 21 1010.0
20260509010017 81 296 0.0 3.0 0.00 0.00 0.00 18 1009.8
20260509004526 82 293 0.0 4.0 0.00 0.00 0.00 17 1009.8
20260509003006 83 280 0.0 2.0 0.00 0.00 0.00 17 1009.7
20260509001503 83 50 0.0 6.0 0.00 0.00 0.00 17 1009.7
20260509000002 84 279 0.0 3.0 0.00 0.00 0.00 17 1009.7
20260508234502 84 163 1.0 4.0 0.00 0.00 0.00 17 1009.6
20260508233110 84 125 1.0 6.0 0.00 0.00 0.00 16 1009.5
20260508231547 84 301 0.0 4.0 0.00 0.00 0.00 16 1009.7
20260508230054 85 119 0.0 3.0 0.00 0.00 0.00 17 1009.8
20260508224542 85 247 0.0 3.0 0.00 0.00 0.00 16 1009.9
20260508223036 85 300 0.0 6.0 0.00 0.00 0.00 18 1009.9
20260508221533 84 239 0.0 4.0 0.00 0.00 0.00 18 1009.9
20260508220028 84 197 0.0 7.0 0.00 0.00 0.00 18 1010.0
20260508213007 84 239 1.0 4.0 0.00 0.00 0.00 21 1010.1
20260508211504 83 201 1.0 3.0 0.00 0.00 0.00 21 1010.1
20260508210121 83 290 0.0 4.0 0.00 0.00 0.00 22 1010.2
20260508204556 82 31 0.0 6.0 0.00 0.00 0.00 23 1010.3
20260508203050 81 336 0.0 4.0 0.00 0.00 0.00 21 1010.3
20260508201546 79 315 0.0 2.0 0.00 0.00 0.00 23 1010.4
20260508200047 79 282 0.0 3.0 0.00 0.00 0.00 23 1010.5
20260508194544 78 340 0.0 2.0 0.00 0.00 0.00 23 1010.3
20260508193020 76 241 0.0 5.0 0.00 0.00 0.00 23 1010.4
20260508191518 77 205 6.0 13.0 0.00 0.00 0.00 21 1010.3
20260508190011 78 37 0.0 3.0 0.00 0.00 0.00 23 1010.5
20260508184506 77 252 2.0 8.0 0.00 0.00 0.00 24 1010.6
20260508183005 78 52 0.0 7.0 0.00 0.00 0.00 25 1010.8
20260508181607 75 341 0.0 4.0 0.00 0.00 0.00 28 1010.8
20260508180053 71 205 1.0 9.0 0.00 0.00 0.00 31 1010.8
20260508174548 70 210 5.0 11.0 0.00 0.00 0.00 30 1010.9
20260508173036 71 214 5.0 11.0 0.00 0.00 0.00 31 1010.9
20260508171528 69 238 0.0 2.0 0.00 0.00 0.00 37 1011.0
20260508170032 68 219 0.0 2.0 0.00 0.00 0.00 37 1010.9
20260508164519 68 238 0.0 6.0 0.00 0.00 0.00 39 1010.9
20260508163015 67 329 0.0 2.0 0.00 0.00 0.00 41 1010.7
20260508161510 66 292 0.0 2.0 0.00 0.00 0.00 40 1010.7
20260508160013 64 294 0.0 3.0 0.00 0.00 0.00 42 1010.5
20260508154501 63 287 0.0 2.0 0.00 0.00 0.00 46 1010.7
20260508151546 59 72 0.0 2.0 0.00 0.00 0.00 54 1010.5